Regional Weather Roundup
Issued by NWS

Home | Current Version | Previous Version | Text Only | Print | Product List | Glossary Off
Versions: 1 2 3 4 5 6 7 8 9 10 11 12 13 14 15 16 17 18 19 20 21 22 23 24 25 26 27 28 29 30 31 32 33 34 35 36 37 38 39 40 41 42 43 44 45 46 47 48 49 50

000
ASUS43 KMKX 280311
RWRWI

WISCONSIN REGIONAL WEATHER ROUNDUP
NATIONAL WEATHER SERVICE MILWAUKEE/SULLIVAN WI
1000 PM CDT MON MAR 27 2017

NOTE: "FAIR" INDICATES FEW OR NO CLOUDS BELOW 12,000 FEET WITH NO
SIGNIFICANT WEATHER AND/OR OBSTRUCTIONS TO VISIBILITY.

WIZ001-002-006>008-014>016-023>028-280400-
NORTHWEST WISCONSIN

CITY           SKY/WX    TMP DP  RH WIND       PRES   REMARKS
SUPERIOR ARPT  CLEAR     30  30 100 CALM      30.04R
ASHLAND        CLEAR     29  27  92 CALM      30.05R
HAYWARD        CLEAR     37  29  72 NE5       30.02R WCI  33
SIREN          CLEAR     43  30  61 CALM      30.02R
CUMBERLAND     CLEAR     41  32  70 CALM      30.00R
RICE LAKE      CLEAR     38  36  91 CALM      30.02R
CHETEK         CLEAR     35  34  98 CALM      30.00R
LADYSMITH      CLEAR     34  30  87 N6        30.02R WCI  29
EAU CLAIRE     CLEAR     37  35  92 CALM      30.00R
MENOMONIE      CLEAR     38  37  97 CALM      30.01R
NEW RICHMOND   CLEAR     38  37  95 CALM      30.01R
OSCEOLA        CLEAR     36  32  86 CALM      30.03R
$$

WIZ003>005-009-010-017-018-280400-
NORTH CENTRAL WISCONSIN

CITY           SKY/WX    TMP DP  RH WIND       PRES   REMARKS
MANITOWISH WTR CLEAR     36  32  83 CALM      30.01R
ARBOR VITAE    CLEAR     34  31  87 N3        30.00R
WOODRUFF       CLEAR     34  31  87 N3        30.00R
RHINELANDER    CLEAR     32  29  88 CALM      30.00R
EAGLE RIVER    CLOUDY    30  30  99 CALM      30.00R
LAND O LAKES   CLOUDY    35  31  87 CALM      30.02R
PHILLIPS       CLEAR     30  29  94 CALM      30.00R
TOMAHAWK       CLEAR     28  27  96 CALM      30.00R
MEDFORD        FOG       33  33  99 CALM      29.99R VSB 1/4
MERRILL        FOG       31  31 100 CALM      30.00R VSB 3/4
$$

WIZ029-030-035-036-043>047-280400-
CENTRAL WISCONSIN

CITY           SKY/WX    TMP DP  RH WIND       PRES   REMARKS
WAUSAU         CLEAR     36  34  92 CALM      29.98R
MOSINEE        CLEAR     37  36  93 CALM      30.00R
MARSHFIELD     PTCLDY    39  36  89 CALM      29.98R
STEVENS POINT  MOCLDY    37  37 100 CALM      30.00R
WAUPACA        CLOUDY    42  41  96 CALM      30.01S FOG
WAUTOMA        CLOUDY    42  41  96 E5        30.01R
WISC RAPIDS    CLOUDY    41  40  96 CALM      30.01R
CAMP DOUGLAS   CLOUDY    42  39  89 CALM      30.00R
$$

WIZ011>013-019>022-031-037>040-048>050-280400-
NORTHEAST WISCONSIN

CITY           SKY/WX    TMP DP  RH WIND       PRES   REMARKS
ANTIGO         PTCLDY    33  33 100 CALM      29.99R
SHAWANO        CLOUDY    41  38  87 CALM      30.01R
OCONTO         CLOUDY    37  34  89 CALM      30.01S
STURGEON BAY   CLOUDY    38  36  92 CALM      29.98S
GREEN BAY      CLOUDY    40  38  93 W3        30.01R
MANITOWOC      CLOUDY    38  34  85 CALM      30.01R
APPLETON       CLOUDY    39  37  93 CALM      29.99R
CLINTONVILLE   CLOUDY    39  37  93 CALM      30.00S
OSHKOSH        CLOUDY    41  37  86 NE5       30.00R
$$

WIZ032>034-041-042-053>061-280400-
SOUTHWEST WISCONSIN

CITY           SKY/WX    TMP DP  RH WIND       PRES   REMARKS
LA CROSSE      CLOUDY    44  39  82 NW5       30.01R
SPARTA         CLOUDY    42  39  86 CALM      30.01S
VIROQUA        CLOUDY    43  42  98 CALM      29.98S
BOSCOBEL       CLOUDY    47  45  93 VRB3      29.99R FOG
PRAIRIE DU CHI CLOUDY    45  43  94 CALM      29.99S
PLATTEVILLE    CLOUDY    46  46 100 NE3       29.98S
$$

WIZ056-057-062-063-064-067-068-280400-
SOUTH CENTRAL WISCONSIN

CITY           SKY/WX    TMP DP  RH WIND       PRES   REMARKS
REEDSBURG      CLOUDY    44  44 100 CALM      29.99R
BARABOO/DELLS  CLOUDY    44  42  93 NE3       29.99R
LONE ROCK      CLOUDY    47  43  86 NE6       29.99R FOG
MINERAL POINT  CLOUDY    46  46 100 CALM      29.98R FOG
MADISON        CLOUDY    45  43  93 E8        29.98R
MIDDLETON      CLOUDY    47  47 100 NE6       29.99R
WATERTOWN      CLOUDY    42  42  99 E7        29.99R
MONROE         CLOUDY    45  43  93 N7        29.97R FOG
JANESVILLE     CLOUDY    46  46 100 CALM      29.97R
$$

WIZ051-052-058>065-066-070>072-280400-
SOUTHEAST WISCONSIN

CITY           SKY/WX    TMP DP  RH WIND       PRES   REMARKS
MILWAUKEE      CLOUDY    39  35  86 NE9       29.99R WCI  33
WAUKESHA       CLOUDY    36  36 100 NE7       30.00R FOG     WCI  30
MILWAUKEE/TIMM CLOUDY    36  34  93 NE6       30.01R FOG     WCI  31
RACINE         CLOUDY    38  35  89 N8        30.00R WCI  32
KENOSHA        CLOUDY    40  36  86 NE7       29.98R
FOND DU LAC    CLOUDY    42  37  82 NE5       30.00R
SHEBOYGAN      CLOUDY    37  34  89 N3        30.00R
WEST BEND      CLOUDY    37  36  93 NE3       30.00R
JUNEAU         CLOUDY    42  40  93 E3        30.00R FOG
$$

LSZ147-162-280400-
LAKE SUPERIOR

STATION/POSITION TIME  TEMP    WIND        PRES    WAVE
                       AIR SEA DIR/SP/G            HT/PER
                 (UTC) (F)     (DEG/KT/KT) (MB)    (FT/S)
DEVILS ISLAND    0200   36      30/  3/  3 1017.7R
PORT WING        0240   33      50/  3/  4 1017.3R
SAXON HARBOR     0240   30     180/  2/  3 1016.9R
$$

LMZ867-665-643>646-280400-
LAKE MICHIGAN

STATION/POSITION TIME  TEMP    WIND        PRES    WAVE
                       AIR SEA DIR/SP/G            HT/PER
                 (UTC) (F)     (DEG/KT/KT) (MB)    (FT/S)
CHAMBERS ISLAND  0240   34        CALM     1015.9R
NORTHPORT PIER   0240   36        CALM     1016.3R
KEWAUNEE LAKESHO 0248   37      CALM  /  1 1015.7R
SHEBOYGAN LAKESH 0300   37     330/  5/  5 1016.4R
PORT WASHINGTON  0230   38      30/  4/  6 1016.9R
MILWAUKEE LAKESH 0250   38      10/  7/ 10   N/A
KENOSHA   LAKESH 0300   38      20/  6/  7 1015.6
$$

TC  - TEMPERATURE IN CELSIUS
VSB - VISIBILITY IN STATUTE MILES
WCI - WIND CHILL INDEX
HX  - HEAT INDEX




USA.gov is the U.S. government's official web portal to all federal, state and local government web resources and services.